Location: Newark
(50.8547°N, 2.7256°E)
Time: 16:01:43
(UTC+00:00)

ISS - Visible Passes

Search period start: 28 January 2020 00:00
Search period end: 07 February 2020 00:00
Orbit: 415 x 423 km, 51.6° (Epoch: 29 January)

Date Brightness Start Highest point End Pass type
(mag) Time Alt. Az. Time Alt. Az. Time Alt. Az.
28 Jan -3.7 17:27:28 10° WSW 17:30:52 76° SSE 17:33:40 14° ENE visible
28 Jan -2.4 19:04:20 10° W 19:06:38 40° WNW 19:06:38 40° WNW visible
29 Jan -3.8 18:16:45 10° W 18:20:08 76° N 18:21:01 46° ENE visible
29 Jan -0.4 19:53:36 10° WNW 19:53:59 13° WNW 19:53:59 13° WNW visible
30 Jan -3.7 17:29:08 10° W 17:32:32 80° N 17:35:25 14° E visible
30 Jan -2.5 19:06:01 10° WNW 19:08:22 41° W 19:08:22 41° W visible
31 Jan -3.8 18:18:26 10° W 18:21:50 82° N 18:22:48 44° E visible
31 Jan -0.4 19:55:19 10° W 19:55:46 13° W 19:55:46 13° W visible
01 Feb -3.7 17:30:49 10° W 17:34:13 76° N 17:37:15 13° E visible
01 Feb -2.5 19:07:41 10° W 19:10:13 42° WSW 19:10:13 42° WSW visible
02 Feb -3.6 18:20:04 10° WNW 18:23:26 71° SSW 18:24:43 35° ESE visible
02 Feb -0.4 19:57:16 10° W 19:57:41 12° W 19:57:41 12° W visible
03 Feb -3.7 17:32:26 10° WNW 17:35:50 87° S 17:39:13 10° ESE visible
03 Feb -2.0 19:09:25 10° W 19:12:15 29° SW 19:12:15 29° SW visible
04 Feb -2.6 18:21:40 10° W 18:24:53 40° SSW 18:26:56 19° SSE visible
05 Feb -3.1 17:34:00 10° W 17:37:19 55° SSW 17:40:38 10° SE visible
05 Feb -1.0 19:11:42 10° WSW 19:13:34 14° SW 19:14:44 12° SSW visible
06 Feb -1.3 18:23:32 10° W 18:26:08 20° SW 18:28:42 10° SSE visible
